Current Weather Conditions: station ENSL

sailwx.info

See reports from other nearby stations

no recent reports received from weather station ID ENSL

Tides Pressure Air temp Water temp Dewpoint Dewpoint depression Visibility Wind speed Wind direction Waves Ship positions
date/time (UTC)wind fromknots sea level pressurealtimeterstation pressurevisibilityair tempwater tempwave heightnotes
2017-May-01 01:50 120 31 5.4 8.0
2017-May-01 01:20 120 31 5.4 8.0
2017-May-01 00:50 120 31 5.4 8.0
2017-May-01 00:20 110 31 5.4 8.0
2017-Apr-30 23:50 120 31 5.4 8.0
2017-Apr-30 23:20 120 29 5.4 8.0
2017-Apr-30 22:50 120 31 5.4 8.0
2017-Apr-30 22:20 120 31 5.4 8.0
2017-Apr-30 21:50 120 31 5.4 8.0
2017-Apr-30 21:20 120 29 5.4 8.0
2017-Apr-30 20:50 120 29 5.4 8.0
2017-Apr-30 20:20 120 27 5.4 8.0
2017-Apr-30 19:50 120 27 5.4 8.0
2017-Apr-30 19:20 120 27 5.4 8.0
2017-Apr-30 18:50 120 27 5.4 8.0
2017-Apr-30 18:20 120 27 5.4 8.0
2017-Apr-30 17:50 120 26 1.8 7.0
2017-Apr-30 17:20 130 27 1.1 7.0
2017-Apr-30 16:50 130 26 5.4 7.0
2017-Apr-30 16:19 130 27 5.4 8.0
2017-Apr-30 15:50 130 26 5.4 7.0
2017-Apr-30 15:20 130 27 5.4 7.0
2017-Apr-30 14:50 130 27 5.4 7.0
2017-Apr-30 14:20 130 27 5.4 7.0
2017-Apr-30 13:50 130 28 5.4 7.0
2017-Apr-30 13:20 130 27 5.4 7.0
2017-Apr-30 12:20 130 27 5.4 8.0
2017-Apr-30 11:50 140 26 5.4 8.0
2017-Apr-30 11:20 140 27 5.4 8.0
2017-Apr-30 10:50 140 26 5.4 8.0
2017-Apr-30 10:20 140 26 5.4 8.0
2017-Apr-30 09:50 140 25 5.4 8.0
2017-Apr-30 09:20 140 24 5.4 7.0
2017-Apr-30 07:50 150 24 5.4 7.0
2017-Apr-30 07:21 150 25 5.4 7.0
2017-Apr-30 06:50 140 26 5.4 7.0
2017-Apr-30 06:20 140 25 5.4 7.0
2017-Apr-30 05:50 140 24 5.4 7.0
2017-Apr-30 05:20 140 22 5.4 7.0
2017-Apr-30 04:50 140 25 5.4 7.0
2017-Apr-30 04:20 140 22 5.4 7.0
2017-Apr-30 03:50 140 26 5.4 7.0
2017-Apr-30 03:20 140 22 5.4 7.0
2017-Apr-30 02:50 140 26 5.4 7.0
2017-Apr-30 02:20 140 24 5.4 7.0
2017-Apr-30 01:50 140 25 5.4 7.0
2017-Apr-30 01:20 140 27 5.4 7.0
2017-Apr-30 00:50 140 27 5.4 7.0
2017-Apr-30 00:20 140 27 5.4 7.0
2017-Apr-29 23:50 140 27 5.4 7.0
2017-Apr-29 23:20 140 26 5.4 7.0
2017-Apr-29 22:50 140 27 5.4 7.0
2017-Apr-29 22:20 140 27 5.4 7.0
2017-Apr-29 21:50 140 27 5.4 7.0
2017-Apr-29 21:20 140 27 5.4 7.0
2017-Apr-29 20:50 140 27 5.4 7.0
2017-Apr-29 20:20 140 28 5.4 7.0
2017-Apr-29 19:50 140 29 5.4 7.0
2017-Apr-29 19:20 140 28 5.4 7.0
2017-Apr-29 18:50 150 27 5.4 7.0
2017-Apr-29 18:20 150 27 0.4 7.0
2017-Apr-29 17:50 150 28 0.1 7.0
2017-Apr-29 17:20 150 27 0.5 7.0
2017-Apr-29 16:50 150 25 5.4 7.0
2017-Apr-29 16:20 150 25 5.4 7.0
2017-Apr-29 15:50 150 22 5.4 7.0
2017-Apr-29 15:20 150 21 5.4 7.0
2017-Apr-29 14:50 150 21 5.4 7.0
2017-Apr-29 14:20 150 21 5.4 7.0
2017-Apr-29 13:50 150 20 5.4 7.0
2017-Apr-29 13:20 150 20 5.4 7.0
2017-Apr-29 12:50 150 20 5.4 7.0
2017-Apr-29 12:20 150 20 5.4 7.0
2017-Apr-29 11:50 140 20 5.4 7.0
2017-Apr-29 11:20 140 19 5.4 7.0
2017-Apr-29 10:50 130 18 5.4 7.0
2017-Apr-29 10:20 130 14 5.4 7.0
2017-Apr-29 09:50 120 9 5.4 7.0
2017-Apr-29 09:20 120 8 5.4 7.0
2017-Apr-29 08:50 120 9 5.4 7.0
2017-Apr-29 08:20 120 9 5.4 7.0
2017-Apr-29 07:50 120 8 5.4 6.0
2017-Apr-29 07:20 130 6 5.4 7.0
2017-Apr-29 06:50 130 6 5.4 7.0
2017-Apr-29 06:20 130 5 5.4 7.0
2017-Apr-29 05:50 120 5 5.4 7.0
2017-Apr-29 05:19 110 5 5.4 6.0
2017-Apr-29 04:50 5.4 6.0
2017-Apr-29 04:20 5.4 5.0
2017-Apr-29 03:50 240 2 5.4 6.0
2017-Apr-29 03:20 240 1 5.4 6.0
2017-Apr-29 02:50 5.4 6.0
2017-Apr-29 02:20 280 0 5.4 6.0